Location: La Chapelle
(48.3135°N, 1.3085°W)
Time: 08:56:32
(UTC+00:00)

Cosmos 2333 - Pass Details

Date: 03 March 2021
Orbit: 829 x 867 km, 70.9° (Epoch: 12 April)

Event Time Altitude Azimuth Distance (km) Brightness Sun altitude
Rises 20:13:34 0° 210° (SSW) 3,376 7.5 -24.0°
Reaches altitude 10° 20:15:59 10° 212° (SSW) 2,450 6.7 -24.3°
Maximum altitude 20:21:37 77° 299° (WNW) 871 4.3 -25.2°
Drops below altitude 10° 20:27:21 10° 26° (NNE) 2,492 6.6 -26.1°
Sets 20:29:50 0° 28° (NNE) 3,437 7.3 -26.5°
